Overview Statistics Trail Chart Weather Telemetry Raw packets
 

This is the latest recevied weather packets stored in our database for station/object OM5AST-13. If no packets are shown the sender has not sent any weather packets the latest 10 day(s).

<< 10 11 12 13 14 15 16 >>
Time Temp. Humidity Pressure Rain* Wind** Luminosity Snow
1788283435 29.44° C 30% - 0 mm - 0 W/m² -
1788282235 30° C 30% - 0 mm - 0 W/m² -
1788281035 28.89° C 32% - 0 mm - 0 W/m² -
1788279835 28.33° C 33% - 0 mm - 0 W/m² -
1788278635 27.78° C 34% - 0 mm - 0 W/m² -
1788277435 28.33° C 34% - 0 mm - 0 W/m² -
1788276235 27.22° C 35% - 0 mm - 0 W/m² -
1788275035 27.78° C 34% - 0 mm - 0 W/m² -
1788273835 28.89° C 32% - 0 mm - 0 W/m² -
1788272635 28.89° C 34% - 0 mm - 0 W/m² -
1788271435 28.33° C 35% - 0 mm - 0 W/m² -
1788270235 27.78° C 35% - 0 mm - 0 W/m² -
1788269035 27.22° C 38% - 0 mm - 0 W/m² -
1788267835 26.67° C 39% - 0 mm - 0 W/m² -
1788266635 26.67° C 41% - 0 mm - 0 W/m² -
1788265435 25.56° C 40% - 0 mm - 0 W/m² -
1788264235 25.56° C 40% - 0 mm - 0 W/m² -
1788263035 25.56° C 42% - 0 mm - 0 W/m² -
1788261835 25° C 43% - 0 mm - 0 W/m² -
1788260635 25° C 45% - 0 mm - 0 W/m² -
1788259435 24.44° C 47% - 0 mm - 0 W/m² -
1788258235 23.89° C 48% - 0 mm - 0 W/m² -
1788257035 23.89° C 50% - 0 mm - 0 W/m² -
1788255835 23.33° C 50% - 0 mm - 0 W/m² -
1788254635 22.78° C 52% - 0 mm - 0 W/m² -

* Rain latest hour (hover to see other rain measurements)
** Current wind speed in m/s (hover to see current wind gust speed)